• In Hungary
  • List of Countries
  • For 7 days
  • Water Temperature
  • Satellite Maps
  • Weather Map
  • News
  • Weather Widgets
  • user-avatar
    Login

    Hourly Weather Novaya Bahmutovka

    Today, 25 February, Sunday

    Time Temperature Precipitation Wind Pressure Humidity
    00:00 -14°C° 0.1 mm 4 mps 748 mmHg 94%
    01:00 -14°C° 0 mm 4 mps 748 mmHg 94%
    02:00 -14°C° 0 mm 4 mps 748 mmHg 95%
    03:00 -15°C° 0 mm 4 mps 748 mmHg 95%
    04:00 -15°C° 0 mm 4 mps 748 mmHg 95%
    05:00 -15°C° 0 mm 4 mps 748 mmHg 95%
    06:00 -15°C° 0 mm 4 mps 747 mmHg 95%
    07:00 -15°C° 0.1 mm 4 mps 747 mmHg 95%
    08:00 -15°C° 0.1 mm 4 mps 748 mmHg 95%
    09:00 -15°C° 0.1 mm 5 mps 748 mmHg 95%
    10:00 -14°C° 0.1 mm 5 mps 748 mmHg 94%
    11:00 -14°C° 0.1 mm 5 mps 747 mmHg 94%
    12:00 -13°C° 0.1 mm 5 mps 747 mmHg 94%
    13:00 -13°C° 0.1 mm 5 mps 747 mmHg 93%
    14:00 -12°C° 0.1 mm 5 mps 747 mmHg 93%
    15:00 -12°C° 0.1 mm 5 mps 747 mmHg 92%
    16:00 -12°C° 0.1 mm 5 mps 747 mmHg 93%
    17:00 -12°C° 0.1 mm 5 mps 747 mmHg 93%
    18:00 -12°C° 0.1 mm 5 mps 747 mmHg 93%
    19:00 -12°C° 0.2 mm 5 mps 747 mmHg 93%
    20:00 -12°C° 0.2 mm 5 mps 747 mmHg 93%
    21:00 -13°C° 0.2 mm 5 mps 747 mmHg 94%
    22:00 -13°C° 0.3 mm 5 mps 747 mmHg 94%
    23:00 -13°C° 0.3 mm 5 mps 747 mmHg 94%

    Tomorrow, 26 February, Monday

    Time Temperature Precipitation Wind Pressure Humidity
    00:00 -13°C° 0.3 mm 5 mps 747 mmHg 94%
    01:00 -13°C° 0.3 mm 5 mps 747 mmHg 94%
    02:00 -13°C° 0.3 mm 5 mps 747 mmHg 94%
    03:00 -13°C° 0.3 mm 5 mps 748 mmHg 94%
    04:00 -13°C° 0.2 mm 5 mps 748 mmHg 94%
    05:00 -13°C° 0.2 mm 5 mps 748 mmHg 94%
    06:00 -14°C° 0.2 mm 5 mps 748 mmHg 94%
    07:00 -14°C° 0.1 mm 4 mps 748 mmHg 94%
    08:00 -14°C° 0.1 mm 4 mps 749 mmHg 93%
    09:00 -14°C° 0.1 mm 4 mps 749 mmHg 93%
    10:00 -12°C° 0 mm 4 mps 749 mmHg 93%
    11:00 -12°C° 0 mm 4 mps 749 mmHg 92%
    12:00 -11°C° 0 mm 4 mps 750 mmHg 92%
    13:00 -11°C° 0 mm 4 mps 750 mmHg 91%
    14:00 -10°C° 0 mm 4 mps 750 mmHg 91%
    15:00 -10°C° 0 mm 4 mps 750 mmHg 90%
    16:00 -11°C° 0 mm 4 mps 750 mmHg 90%
    17:00 -11°C° 0 mm 4 mps 750 mmHg 90%
    18:00 -12°C° 0 mm 4 mps 751 mmHg 90%
    19:00 -14°C° 0 mm 4 mps 751 mmHg 91%
    20:00 -13°C° 0 mm 3 mps 751 mmHg 92%
    21:00 -14°C° 0 mm 3 mps 751 mmHg 93%
    22:00 -14°C° 0 mm 3 mps 751 mmHg 93%
    23:00 -15°C° 0 mm 3 mps 751 mmHg 94%

    Day after tomorrow, 27 February, Tuesday

    Time Temperature Precipitation Wind Pressure Humidity
    00:00 -16°C° 0 mm 3 mps 751 mmHg 94%
    01:00 -17°C° 0 mm 4 mps 751 mmHg 94%
    02:00 -18°C° 0 mm 4 mps 751 mmHg 95%
    03:00 -18°C° 0 mm 4 mps 751 mmHg 95%
    04:00 -19°C° 0 mm 5 mps 751 mmHg 94%
    05:00 -20°C° 0 mm 5 mps 751 mmHg 94%
    06:00 -20°C° 0 mm 5 mps 751 mmHg 94%
    07:00 -20°C° 0 mm 6 mps 751 mmHg 94%
    08:00 -20°C° 0 mm 6 mps 751 mmHg 93%
    09:00 -19°C° 0 mm 7 mps 751 mmHg 93%
    10:00 -18°C° 0 mm 7 mps 751 mmHg 92%
    11:00 -17°C° 0 mm 7 mps 751 mmHg 92%
    12:00 -14°C° 0 mm 7 mps 750 mmHg 91%
    13:00 -15°C° 0 mm 8 mps 750 mmHg 91%
    14:00 -13°C° 0 mm 8 mps 750 mmHg 91%
    15:00 -12°C° 0 mm 8 mps 749 mmHg 91%
    16:00 -12°C° 0 mm 8 mps 749 mmHg 91%
    17:00 -13°C° 0 mm 8 mps 749 mmHg 91%
    18:00 -13°C° 0 mm 8 mps 749 mmHg 91%
    19:00 -13°C° 0.2 mm 8 mps 749 mmHg 92%
    20:00 -13°C° 0.2 mm 8 mps 750 mmHg 92%
    21:00 -13°C° 0.2 mm 8 mps 750 mmHg 93%
    22:00 -12°C° 0.7 mm 8 mps 750 mmHg 93%
    23:00 -12°C° 0.7 mm 8 mps 750 mmHg 94%

    28 February, Wednesday

    Time Temperature Precipitation Wind Pressure Humidity
    00:00 -11°C° 0.7 mm 8 mps 750 mmHg 94%
    01:00 -11°C° 0.2 mm 7 mps 750 mmHg 94%
    02:00 -9°C° 0.2 mm 7 mps 750 mmHg 94%
    03:00 -9°C° 0.2 mm 6 mps 750 mmHg 94%
    04:00 -8°C° 0.1 mm 6 mps 750 mmHg 94%
    05:00 -6°C° 0.1 mm 6 mps 750 mmHg 95%
    06:00 -7°C° 0.1 mm 7 mps 750 mmHg 95%
    07:00 -5°C° 0 mm 6 mps 750 mmHg 95%
    08:00 -5°C° 0 mm 6 mps 751 mmHg 95%
    09:00 -4°C° 0 mm 5 mps 751 mmHg 96%
    10:00 -4°C° 0 mm 5 mps 752 mmHg 97%
    11:00 -2°C° 0 mm 4 mps 752 mmHg 98%
    12:00 -2°C° 0 mm 4 mps 753 mmHg 99%
    13:00 -1°C° 0 mm 3 mps 753 mmHg 99%
    14:00 -1°C° 0 mm 3 mps 752 mmHg 99%
    15:00 -1°C° 0 mm 2 mps 752 mmHg 98%
    16:00 -1°C° 0 mm 2 mps 752 mmHg 98%
    17:00 -2°C° 0 mm 2 mps 752 mmHg 98%
    18:00 -2°C° 0 mm 2 mps 752 mmHg 97%
    19:00 -2°C° 0 mm 3 mps 752 mmHg 97%
    20:00 -2°C° 0 mm 3 mps 752 mmHg 97%
    21:00 -2°C° 0 mm 3 mps 752 mmHg 97%
    22:00 -3°C° 0 mm 4 mps 752 mmHg 96%
    23:00 -4°C° 0 mm 5 mps 751 mmHg 96%

    1 March, Thursday

    Time Temperature Precipitation Wind Pressure Humidity
    00:00 -4°C° 0 mm 6 mps 751 mmHg 95%
    01:00 -4°C° 0.1 mm 6 mps 750 mmHg 94%
    02:00 -4°C° 0.1 mm 7 mps 750 mmHg 93%
    03:00 -6°C° 0.1 mm 8 mps 749 mmHg 93%
    04:00 -6°C° 0.2 mm 8 mps 748 mmHg 92%
    05:00 -6°C° 0.2 mm 9 mps 748 mmHg 92%
    06:00 -6°C° 0.2 mm 9 mps 748 mmHg 91%
    07:00 -5°C° 0.3 mm 10 mps 747 mmHg 91%
    08:00 -5°C° 0.3 mm 10 mps 747 mmHg 91%
    09:00 -5°C° 0.3 mm 10 mps 747 mmHg 90%
    10:00 -5°C° 0.3 mm 10 mps 747 mmHg 90%
    11:00 -5°C° 0.3 mm 10 mps 746 mmHg 90%
    12:00 -6°C° 0.3 mm 11 mps 746 mmHg 90%
    13:00 -5°C° 0.5 mm 10 mps 746 mmHg 91%
    14:00 -5°C° 0.5 mm 10 mps 746 mmHg 92%
    15:00 -4°C° 0.5 mm 10 mps 746 mmHg 92%
    16:00 -4°C° 1.1 mm 10 mps 746 mmHg 93%
    17:00 -4°C° 1.1 mm 9 mps 746 mmHg 93%
    18:00 -4°C° 1.1 mm 8 mps 747 mmHg 94%
    19:00 -5°C° 0.2 mm 8 mps 747 mmHg 92%
    20:00 -4°C° 0.2 mm 7 mps 748 mmHg 91%
    21:00 -4°C° 0.2 mm 6 mps 748 mmHg 89%
    22:00 -5°C° 0 mm 5 mps 749 mmHg 89%
    23:00 -5°C° 0 mm 4 mps 749 mmHg 89%

    2 March, Friday

    Time Temperature Precipitation Wind Pressure Humidity
    00:00 -7°C° 0 mm 4 mps 749 mmHg 89%
    01:00 -8°C° 0 mm 4 mps 750 mmHg 90%
    02:00 -8°C° 0 mm 4 mps 750 mmHg 90%
    03:00 -8°C° 0 mm 4 mps 750 mmHg 91%
    04:00 -9°C° 0 mm 4 mps 750 mmHg 91%
    05:00 -9°C° 0 mm 4 mps 750 mmHg 90%
    06:00 -8°C° 0 mm 3 mps 750 mmHg 90%
    07:00 -9°C° 0 mm 4 mps 751 mmHg 90%
    08:00 -9°C° 0 mm 4 mps 751 mmHg 89%
    09:00 -9°C° 0 mm 4 mps 751 mmHg 88%
    10:00 -8°C° 0 mm 4 mps 751 mmHg 85%
    11:00 -7°C° 0 mm 5 mps 751 mmHg 82%
    12:00 -6°C° 0 mm 5 mps 751 mmHg 80%
    13:00 -6°C° 0 mm 5 mps 750 mmHg 79%
    14:00 -6°C° 0 mm 5 mps 750 mmHg 79%
    15:00 -6°C° 0 mm 5 mps 750 mmHg 79%
    16:00 -7°C° 0 mm 5 mps 750 mmHg 81%
    17:00 -8°C° 0 mm 4 mps 750 mmHg 84%
    18:00 -8°C° 0 mm 3 mps 750 mmHg 86%
    19:00 -9°C° 0 mm 3 mps 750 mmHg 87%
    20:00 -10°C° 0 mm 3 mps 750 mmHg 88%
    21:00 -9°C° 0 mm 2 mps 750 mmHg 90%
    22:00 -10°C° 0 mm 2 mps 750 mmHg 90%
    23:00 -10°C° 0 mm 2 mps 749 mmHg 91%
    Show more